Weather History for Farmington, MO

Change the Weather History Date:

Friday, June 28, 2013

  Actual Average Record
Temperature  
Mean Temperature 79 °F -  
Max Temperature 87 °F 82 °F 107 °F (2012)
Min Temperature 71 °F 62 °F 55 °F (2003)
Cooling Degree Days 14    
Growing Degree Days 29 (Base 50)    
Moisture  
Dew Point 64 °F    
Average Humidity 62    
Maximum Humidity 94    
Minimum Humidity 40    
Precipitation  
Precipitation 0.02 in - - ()
Sea Level Pressure  
Sea Level Pressure 29.84 in    
Wind  
Wind Speed 5 mph (NW)    
Max Wind Speed 15 mph    
Max Gust Speed 24 mph    
Visibility 10 miles    
Events      
Averages and records for this station are not official NWS values.
T = Trace of Precipitation, MM = Missing Value Source: NWS Daily Summary

Daily Weather History Graph

Daily Weather History Graph

Search for Another Location

Airport:

Trip Planner

Search our weather history database for the weather conditions in past years. The results will help you decide how hot, cold, wet, or windy it might be!

Date:

Astronomy

Jun. 28, 2013 Rise Set
Actual Time 5:42 AM CDT 8:27 PM CDT
Civil Twilight 5:11 AM CDT 8:58 PM CDT
Nautical Twilight 4:31 AM CDT 9:37 PM CDT
Astronomical Twilight 3:47 AM CDT 10:22 PM CDT
Moon No Moon Rise 11:43 AM CDT (6/28)
Length of Visible Light 15h 47m
Length of Day
14h 45m
Waning Gibbous, 66% of the Moon is Illuminated
Jun 28
Waning Gibbous
Jun 29
Last Quarter
Jul 8
New
Jul 15
First Quarter
Jul 22
Full

Hourly Weather History & Observations

Time (CDT) Temp. Heat Index Dew Point Humidity Pressure Visibility Wind Dir Wind Speed Gust Speed Precip Events Conditions
12:15 AM 75.2 °F - 69.8 °F 83% 29.91 in 10.0 mi WNW 3.5 mph - N/A   Clear
12:35 AM 75.2 °F - 69.8 °F 83% 29.91 in 10.0 mi Calm Calm - N/A   Clear
12:55 AM 73.4 °F - 69.8 °F 88% 29.90 in 10.0 mi SSW 3.5 mph - N/A   Clear
1:35 AM 73.4 °F - 69.8 °F 88% 29.91 in 10.0 mi WNW 3.5 mph - N/A   Clear
1:55 AM 75.2 °F - 69.8 °F 83% 29.90 in 10.0 mi Calm Calm - N/A   Clear
2:15 AM 77.0 °F - 69.8 °F 78% 29.88 in 10.0 mi NE 3.5 mph - N/A   Clear
2:35 AM 73.4 °F - 68.0 °F 83% 29.88 in 10.0 mi ENE 3.5 mph - N/A   Clear
2:55 AM 73.4 °F - 69.8 °F 88% 29.87 in 10.0 mi Calm Calm - N/A   Clear
3:15 AM 71.6 °F - 69.8 °F 94% 29.86 in 10.0 mi Calm Calm - N/A   Clear
3:35 AM 71.6 °F - 69.8 °F 94% 29.87 in 10.0 mi Calm Calm - N/A   Clear
3:55 AM 73.4 °F - 69.8 °F 88% 29.86 in 10.0 mi Calm Calm - N/A   Clear
4:15 AM 73.4 °F - 68.0 °F 83% 29.86 in 10.0 mi NNW 3.5 mph - N/A   Mostly Cloudy
4:35 AM 75.2 °F - 66.2 °F 73% 29.88 in 10.0 mi NNW 5.8 mph - N/A   Partly Cloudy
4:55 AM 75.2 °F - 66.2 °F 73% 29.88 in 10.0 mi NW 5.8 mph - N/A   Scattered Clouds
5:15 AM 75.2 °F - 66.2 °F 73% 29.87 in 10.0 mi NW 5.8 mph - N/A   Mostly Cloudy
5:35 AM 75.2 °F - 66.2 °F 73% 29.86 in 10.0 mi NW 5.8 mph - N/A   Clear
5:55 AM 73.4 °F - 66.2 °F 78% 29.86 in 10.0 mi NW 6.9 mph - N/A   Clear
6:15 AM 73.4 °F - 66.2 °F 78% 29.85 in 10.0 mi NNW 5.8 mph - N/A   Clear
6:35 AM 73.4 °F - 66.2 °F 78% 29.85 in 10.0 mi North 8.1 mph - N/A   Clear
6:55 AM 73.4 °F - 68.0 °F 83% 29.85 in 10.0 mi NW 4.6 mph - N/A   Scattered Clouds
7:15 AM 73.4 °F - 68.0 °F 83% 29.86 in 10.0 mi West 4.6 mph - N/A   Partly Cloudy
7:35 AM 73.4 °F - 68.0 °F 83% 29.86 in 10.0 mi NW 3.5 mph - N/A   Clear
7:55 AM 75.2 °F - 68.0 °F 78% 29.86 in 10.0 mi NW 4.6 mph - N/A   Clear
8:15 AM 75.2 °F - 69.8 °F 83% 29.86 in 10.0 mi NW 5.8 mph - N/A   Clear
8:35 AM 77.0 °F - 68.0 °F 74% 29.86 in 10.0 mi NW 6.9 mph - N/A   Clear
8:55 AM 78.8 °F - 68.0 °F 69% 29.87 in 10.0 mi NW 5.8 mph - N/A   Clear
9:15 AM 78.8 °F - 68.0 °F 69% 29.87 in 10.0 mi NW 11.5 mph - N/A   Clear
9:35 AM 80.6 °F 83.2 °F 68.0 °F 65% 29.87 in 10.0 mi NW 9.2 mph - N/A   Clear
9:55 AM 82.4 °F 85.4 °F 68.0 °F 62% 29.87 in 10.0 mi NNW 6.9 mph - N/A   Clear
10:15 AM 80.6 °F 82.7 °F 66.2 °F 61% 29.87 in 10.0 mi NW 10.4 mph - N/A   Clear
10:35 AM 82.4 °F 85.4 °F 68.0 °F 62% 29.87 in 10.0 mi WNW 6.9 mph - N/A   Clear
10:55 AM 82.4 °F 84.6 °F 66.2 °F 58% 29.88 in 10.0 mi West 8.1 mph - N/A   Clear
11:15 AM 84.2 °F 85.6 °F 64.4 °F 51% 29.88 in 10.0 mi NW 5.8 mph - N/A   Clear
11:35 AM 84.2 °F 85.0 °F 62.6 °F 48% 29.87 in 10.0 mi NNW 6.9 mph - N/A   Clear
11:55 AM 86.0 °F 86.6 °F 62.6 °F 45% 29.87 in 10.0 mi West 9.2 mph - N/A   Clear
12:15 PM 86.0 °F 86.6 °F 62.6 °F 45% 29.87 in 10.0 mi West 8.1 mph - N/A   Clear
12:35 PM 86.0 °F 86.6 °F 62.6 °F 45% 29.86 in 10.0 mi West 10.4 mph 16.1 mph N/A   Clear
12:55 PM 86.0 °F 86.6 °F 62.6 °F 45% 29.85 in 10.0 mi West 9.2 mph - N/A   Clear
1:15 PM 86.0 °F 86.6 °F 62.6 °F 45% 29.84 in 10.0 mi WNW 9.2 mph 16.1 mph N/A   Partly Cloudy
1:35 PM 87.8 °F 88.5 °F 62.6 °F 43% 29.83 in 10.0 mi West 8.1 mph 17.3 mph N/A   Partly Cloudy
1:55 PM 86.0 °F 87.3 °F 64.4 °F 48% 29.82 in 10.0 mi NW 13.8 mph 17.3 mph N/A   Scattered Clouds
2:15 PM 87.8 °F 89.4 °F 64.4 °F 46% 29.81 in 10.0 mi WNW 9.2 mph - N/A   Scattered Clouds
2:35 PM 82.4 °F 83.9 °F 64.4 °F 54% 29.82 in 10.0 mi WNW 6.9 mph - N/A   Mostly Cloudy
2:55 PM 78.8 °F - 62.6 °F 57% 29.81 in 9.0 mi NNW 6.9 mph 24.2 mph 0.02 in   Mostly Cloudy
3:15 PM 80.6 °F 82.7 °F 66.2 °F 61% 29.81 in 10.0 mi NW 6.9 mph - N/A   Scattered Clouds
3:35 PM 82.4 °F 85.4 °F 68.0 °F 62% 29.80 in 10.0 mi WNW 11.5 mph 17.3 mph N/A   Scattered Clouds
3:55 PM 84.2 °F 86.6 °F 66.2 °F 55% 29.80 in 10.0 mi WNW 8.1 mph - N/A   Scattered Clouds
4:15 PM 84.2 °F 86.6 °F 66.2 °F 55% 29.79 in 10.0 mi WNW 8.1 mph - N/A   Partly Cloudy
4:35 PM 86.0 °F 86.1 °F 60.8 °F 43% 29.79 in 10.0 mi NNW 12.7 mph 20.7 mph N/A   Clear
4:55 PM 86.0 °F 86.1 °F 60.8 °F 43% 29.79 in 10.0 mi NNW 15.0 mph 20.7 mph N/A   Clear
5:15 PM 86.0 °F 86.1 °F 60.8 °F 43% 29.79 in 10.0 mi NW 15.0 mph 21.9 mph N/A   Clear
5:35 PM 84.2 °F 83.5 °F 57.2 °F 40% 29.78 in 10.0 mi NW 12.7 mph 20.7 mph N/A   Clear
5:55 PM 84.2 °F 83.5 °F 57.2 °F 40% 29.78 in 10.0 mi NW 10.4 mph 18.4 mph N/A   Clear
6:15 PM 84.2 °F 83.5 °F 57.2 °F 40% 29.78 in 10.0 mi NW 9.2 mph 17.3 mph N/A   Clear
6:35 PM 84.2 °F 83.5 °F 57.2 °F 40% 29.78 in 10.0 mi NW 8.1 mph 18.4 mph N/A   Clear
6:55 PM 82.4 °F 82.0 °F 57.2 °F 42% 29.78 in 10.0 mi NW 10.4 mph 16.1 mph N/A   Clear
7:15 PM 82.4 °F 82.0 °F 57.2 °F 42% 29.78 in 10.0 mi NNW 6.9 mph - N/A   Clear
7:35 PM 80.6 °F 80.8 °F 57.2 °F 45% 29.78 in 10.0 mi NW 9.2 mph - N/A   Clear
7:55 PM 80.6 °F 80.8 °F 57.2 °F 45% 29.79 in 10.0 mi NW 6.9 mph - N/A   Clear
8:15 PM 78.8 °F - 57.2 °F 47% 29.79 in 10.0 mi NW 4.6 mph - N/A   Clear
8:35 PM 77.0 °F - 57.2 °F 50% 29.79 in 10.0 mi NW 4.6 mph - N/A   Clear
8:55 PM 75.2 °F - 57.2 °F 53% 29.79 in 10.0 mi WNW 3.5 mph - N/A   Clear
9:15 PM 73.4 °F - 57.2 °F 57% 29.79 in 10.0 mi Calm Calm - N/A   Partly Cloudy
9:35 PM 73.4 °F - 57.2 °F 57% 29.80 in 10.0 mi Calm Calm - N/A   Clear
9:55 PM 73.4 °F - 57.2 °F 57% 29.80 in 10.0 mi NW 4.6 mph - N/A   Clear
10:15 PM 73.4 °F - 57.2 °F 57% 29.80 in 10.0 mi WNW 4.6 mph - N/A   Clear
10:35 PM 73.4 °F - 57.2 °F 57% 29.79 in 10.0 mi WNW 5.8 mph - N/A   Clear
10:55 PM 73.4 °F - 57.2 °F 57% 29.79 in 10.0 mi WNW 4.6 mph - N/A   Clear
11:15 PM 73.4 °F - 55.4 °F 53% 29.78 in 10.0 mi WNW 6.9 mph - N/A   Clear
11:35 PM 73.4 °F - 55.4 °F 53% 29.78 in 10.0 mi WNW 6.9 mph - N/A   Clear
11:55 PM 73.4 °F - 55.4 °F 53% 29.78 in 10.0 mi WNW 6.9 mph - N/A   Clear